DW4915 Mazarete ES current weather conditions

sailwx.info

Wind from 090

Air temperature 32.2° C
Dewpoint 32.2° C

Last reported at 2016-Dec-05 19:51 UTC.
Time now 2016-Dec-05 20:40 UTC

Location: N 40°58' W 002°11'.
View on Google Maps.

See reports from other nearby stations

  
Tides and Currents Weather Stations Pressure Air Temp Water Temp Dewpoint Dewpoint Depression Visibility Wind Speed Wind Dir Waves Ship Positions
date/time (UTC)wind fromknots sea level pressurealtimeterstation pressurevisibilityair tempwater tempwave heightnotes
2016-Dec-05 19:51 090 32.2
2016-Dec-05 19:46 091 32.2
2016-Dec-05 19:41 091 32.2
2016-Dec-05 19:36 092 32.2
2016-Dec-05 19:31 091 32.2
2016-Dec-05 19:26 091 32.2
2016-Dec-05 19:21 090 32.2
2016-Dec-05 19:16 091 32.2
2016-Dec-05 19:11 091 32.2
2016-Dec-05 19:06 091 32.2
2016-Dec-05 19:01 091 32.2
2016-Dec-05 18:56 091 32.2
2016-Dec-05 18:51 091 32.2
2016-Dec-05 18:46 091 32.2
2016-Dec-05 18:41 090 32.2
2016-Dec-05 18:36 093 32.2
2016-Dec-05 18:31 094 32.2
2016-Dec-05 18:26 094 32.2
2016-Dec-05 18:21 094 32.2
2016-Dec-05 18:16 094 32.8
2016-Dec-05 18:06 094 32.8
2016-Dec-05 18:01 094 32.8
2016-Dec-05 17:56 094 32.2
2016-Dec-05 17:51 094 32.2
2016-Dec-05 17:46 094 32.2
2016-Dec-05 17:41 093 32.2
2016-Dec-05 17:36 094 32.2
2016-Dec-05 17:31 094 32.2
2016-Dec-05 17:26 094 32.2
2016-Dec-05 17:21 094 32.2
2016-Dec-05 17:16 094 32.8
2016-Dec-05 17:11 094 32.8
2016-Dec-05 17:06 094 32.8
2016-Dec-05 17:01 096 33.3
2016-Dec-05 16:56 095 33.3
2016-Dec-05 16:51 097 33.3
2016-Dec-05 16:41 096 33.3
2016-Dec-05 16:36 095 33.9
2016-Dec-05 16:31 095 33.9
2016-Dec-05 16:26 095 33.9
2016-Dec-05 16:21 096 33.9
2016-Dec-05 16:16 095 33.9
2016-Dec-05 16:11 096 34.4
2016-Dec-05 16:06 096 34.4
2016-Dec-05 16:01 095 34.4
2016-Dec-05 15:56 095 34.4
2016-Dec-05 15:41 092 35.0
2016-Dec-05 15:31 090 35.0
2016-Dec-05 15:26 101 35.0
2016-Dec-05 15:21 102 35.0
2016-Dec-05 15:16 100 35.0
2016-Dec-05 15:11 100 35.0
2016-Dec-05 15:06 102 35.0
2016-Dec-05 15:01 101 35.0
2016-Dec-05 14:56 101 35.0
2016-Dec-05 14:51 102 35.6
2016-Dec-05 14:46 101 35.6
2016-Dec-05 14:41 110 35.6
2016-Dec-05 14:36 113 35.6
2016-Dec-05 14:31 117 35.6
2016-Dec-05 14:26 114 35.6
2016-Dec-05 14:21 075 35.0
2016-Dec-05 14:16 092 35.0
2016-Dec-05 14:11 092 35.0
2016-Dec-05 14:06 092 35.0
2016-Dec-05 14:01 071 35.0
2016-Dec-05 13:56 073 35.0
2016-Dec-05 13:51 063 35.0
2016-Dec-05 13:46 083 35.0
2016-Dec-05 13:41 096 35.0
2016-Dec-05 13:36 097 35.0
2016-Dec-05 13:31 065 35.0
2016-Dec-05 13:26 064 35.0
2016-Dec-05 13:21 082 35.0
2016-Dec-05 13:16 091 35.0
2016-Dec-05 13:11 070 35.0
2016-Dec-05 13:01 090 35.6
2016-Dec-05 12:56 087 35.6
2016-Dec-05 12:51 068 35.6
2016-Dec-05 12:46 092 36.1
2016-Dec-05 12:41 097 36.1
2016-Dec-05 12:36 105 36.7
2016-Dec-05 12:31 092 36.7
2016-Dec-05 12:26 079 36.7
2016-Dec-05 12:21 104 36.7
2016-Dec-05 12:11 096 36.1
2016-Dec-05 12:06 083 35.6
2016-Dec-05 12:01 092 35.6
2016-Dec-05 11:51 091 35.6
2016-Dec-05 11:46 085 35.6
2016-Dec-05 11:41 095 35.0
2016-Dec-05 11:36 113 35.0
2016-Dec-05 11:31 100 35.0
2016-Dec-05 11:26 106 35.0
2016-Dec-05 11:21 082 35.0
2016-Dec-05 11:16 101 35.0
2016-Dec-05 11:11 113 35.0
2016-Dec-05 11:06 088 35.0
2016-Dec-05 11:01 103 35.0
2016-Dec-05 10:56 100 34.4
2016-Dec-05 10:51 090 34.4
2016-Dec-05 10:46 104 33.9
2016-Dec-05 10:41 083 33.9
2016-Dec-05 10:36 110 33.9
2016-Dec-05 10:31 105 33.9
2016-Dec-05 10:26 092 33.9
2016-Dec-05 10:21 128 33.9
2016-Dec-05 10:16 088 33.9
2016-Dec-05 10:11 081 33.9
2016-Dec-05 10:06 105 33.3
2016-Dec-05 10:01 094 33.3
2016-Dec-05 09:56 073 33.3
2016-Dec-05 09:51 079 33.3
2016-Dec-05 09:46 078 33.3
2016-Dec-05 09:41 090 32.8
2016-Dec-05 09:36 084 32.8
2016-Dec-05 09:31 078 32.8
2016-Dec-05 09:26 098 32.8
2016-Dec-05 09:21 080 32.2
2016-Dec-05 09:16 103 32.2
2016-Dec-05 09:11 115 32.2
2016-Dec-05 09:06 097 32.2
2016-Dec-05 09:01 101 32.2
2016-Dec-05 08:56 081 32.2
2016-Dec-05 08:51 087 31.7
2016-Dec-05 08:46 090 31.7
2016-Dec-05 08:41 102 31.7
2016-Dec-05 08:36 091 31.7
2016-Dec-05 08:31 096 31.7
2016-Dec-05 08:26 091 31.7
2016-Dec-05 08:21 094 31.7
2016-Dec-05 08:16 069 31.7
2016-Dec-05 08:11 067 31.7
2016-Dec-05 08:06 083 31.7
2016-Dec-05 08:01 112 31.7
2016-Dec-05 07:56 088 31.7
2016-Dec-05 07:51 090 31.7
2016-Dec-05 07:46 088 31.7
2016-Dec-05 07:41 095 31.7
2016-Dec-05 07:36 094 31.7
2016-Dec-05 07:31 093 31.7
2016-Dec-05 07:26 093 31.7
2016-Dec-05 07:21 094 31.7
2016-Dec-05 07:16 094 31.7
2016-Dec-05 07:11 093 31.7
2016-Dec-05 07:06 094 31.7
2016-Dec-05 07:01 093 31.7
2016-Dec-05 06:56 094 31.7
2016-Dec-05 06:51 094 31.7
2016-Dec-05 06:46 093 31.7
2016-Dec-05 06:41 094 31.7
2016-Dec-05 06:36 094 31.7
2016-Dec-05 06:31 097 31.7
2016-Dec-05 06:26 075 31.7
2016-Dec-05 06:21 075 31.7
2016-Dec-05 06:16 077 31.7
2016-Dec-05 06:11 072 31.7
2016-Dec-05 06:06 077 31.7
2016-Dec-05 06:01 084 31.7
2016-Dec-05 05:56 084 31.1
2016-Dec-05 05:51 085 31.1
2016-Dec-05 05:46 085 31.1
2016-Dec-05 05:41 068 31.1
2016-Dec-05 05:36 067 31.1
2016-Dec-05 05:31 067 31.1
2016-Dec-05 05:26 067 31.1
2016-Dec-05 05:21 067 31.1
2016-Dec-05 05:16 073 31.1
2016-Dec-05 05:11 073 31.1
2016-Dec-05 05:06 073 31.1
2016-Dec-05 05:01 069 31.1
2016-Dec-05 04:56 085 31.1
2016-Dec-05 04:51 077 31.1
2016-Dec-05 04:46 081 31.1
2016-Dec-05 04:41 081 31.1
2016-Dec-05 04:36 090 31.1
2016-Dec-05 04:31 083 31.1
2016-Dec-05 04:26 072 31.1
2016-Dec-05 04:21 083 31.1
2016-Dec-05 04:16 077 30.6
2016-Dec-05 04:11 081 30.6
2016-Dec-05 04:06 082 30.6
2016-Dec-05 04:01 075 30.6
2016-Dec-05 03:56 070 30.6
2016-Dec-05 03:51 072 30.6
2016-Dec-05 03:46 057 30.6
2016-Dec-05 03:41 062 30.6
2016-Dec-05 03:36 065 30.6
2016-Dec-05 03:31 064 30.6
2016-Dec-05 03:26 081 30.6
2016-Dec-05 03:21 073 30.6
2016-Dec-05 03:16 077 31.1
2016-Dec-05 03:11 093 31.1
2016-Dec-05 03:06 083 31.1
2016-Dec-05 03:01 071 31.1
2016-Dec-05 02:56 081 31.1
2016-Dec-05 02:51 088 30.6
2016-Dec-05 02:46 088 30.6
2016-Dec-05 02:41 079 30.6
2016-Dec-05 02:36 080 30.6
2016-Dec-05 02:31 085 30.6
2016-Dec-05 02:26 082 30.6
2016-Dec-05 02:21 088 30.6
2016-Dec-05 02:16 090 30.6
2016-Dec-05 02:11 084 31.1
2016-Dec-05 02:06 088 31.1
2016-Dec-05 02:01 077 31.1
2016-Dec-05 01:56 085 31.1
2016-Dec-05 01:51 076 31.1
2016-Dec-05 01:46 098 31.1
2016-Dec-05 01:41 081 31.1
2016-Dec-05 01:36 082 31.1
2016-Dec-05 01:31 081 31.1
2016-Dec-05 01:26 081 31.1
2016-Dec-05 01:21 085 31.1
2016-Dec-05 01:16 087 31.1
2016-Dec-05 01:11 089 31.1
2016-Dec-05 01:06 081 31.1
2016-Dec-05 01:01 079 31.1
2016-Dec-05 00:56 087 31.1
2016-Dec-05 00:51 075 31.1
2016-Dec-05 00:46 102 31.1
2016-Dec-05 00:41 086 31.1
2016-Dec-05 00:36 079 31.1
2016-Dec-05 00:31 092 31.1
2016-Dec-05 00:26 087 31.1
2016-Dec-05 00:21 085 31.1
2016-Dec-05 00:16 096 31.7
2016-Dec-05 00:11 112 31.7
2016-Dec-05 00:06 088 31.7
2016-Dec-05 00:01 079 31.7
2016-Dec-04 23:56 098 31.7
2016-Dec-04 23:51 084 31.7
2016-Dec-04 23:46 094 31.7
2016-Dec-04 23:41 100 31.7
2016-Dec-04 23:36 085 31.7
2016-Dec-04 23:31 085 31.7
2016-Dec-04 23:26 090 31.7
2016-Dec-04 23:21 092 31.7
2016-Dec-04 23:16 090 31.7
2016-Dec-04 23:06 086 31.7
2016-Dec-04 23:01 092 31.7
2016-Dec-04 22:56 106 31.7
2016-Dec-04 22:46 106 31.1
2016-Dec-04 22:41 110 31.1
2016-Dec-04 22:31 101 31.1
2016-Dec-04 22:26 102 31.1
2016-Dec-04 22:21 100 31.1
2016-Dec-04 22:16 099 31.1
2016-Dec-04 22:11 135 31.1
2016-Dec-04 22:06 106 31.1
2016-Dec-04 22:01 088 31.1
2016-Dec-04 21:56 109 31.1
2016-Dec-04 21:51 102 31.1
2016-Dec-04 21:46 100 31.1
2016-Dec-04 21:41 098 31.1
2016-Dec-04 21:36 085 31.1
2016-Dec-04 21:31 085 31.1
2016-Dec-04 21:26 085 31.1
2016-Dec-04 21:21 074 31.1
2016-Dec-04 21:16 098 31.1
2016-Dec-04 21:11 098 31.1
2016-Dec-04 21:06 098 31.1
2016-Dec-04 21:01 078 31.1
2016-Dec-04 20:56 077 31.1
2016-Dec-04 20:51 077 31.1
2016-Dec-04 20:46 077 31.1
2016-Dec-04 20:41 077 31.1
2016-Dec-04 20:36 080 31.1
2016-Dec-04 20:31 084 31.1
2016-Dec-04 20:26 084 31.1
2016-Dec-04 20:16 085 31.7
2016-Dec-04 20:11 086 31.7
2016-Dec-04 20:06 086 31.7
2016-Dec-04 20:01 085 31.7
2016-Dec-04 19:56 086 31.7
2016-Dec-04 19:51 087 31.7
2016-Dec-04 19:46 088 31.7
2016-Dec-04 19:36 086 31.7
2016-Dec-04 19:31 079 31.7
2016-Dec-04 19:26 104 31.7
2016-Dec-04 19:21 088 31.7
2016-Dec-04 19:16 098 31.7
2016-Dec-04 19:11 090 31.7
2016-Dec-04 19:06 081 31.7
2016-Dec-04 19:01 083 31.7
2016-Dec-04 18:56 085 31.7
2016-Dec-04 18:51 087 31.7
2016-Dec-04 18:46 083 31.7
2016-Dec-04 18:41 089 31.7
2016-Dec-04 18:36 104 31.7
2016-Dec-04 18:31 097 31.7
2016-Dec-04 18:26 095 31.7
2016-Dec-04 18:21 090 31.7
2016-Dec-04 18:16 081 31.7
2016-Dec-04 18:11 094 31.7
2016-Dec-04 18:06 085 31.7
2016-Dec-04 18:01 085 31.7
2016-Dec-04 17:56 090 31.7
2016-Dec-04 17:51 096 31.7
2016-Dec-04 17:46 096 31.7
2016-Dec-04 17:41 102 31.7
2016-Dec-04 17:36 102 31.7
2016-Dec-04 17:31 111 31.7
2016-Dec-04 17:26 085 31.7
2016-Dec-04 17:21 102 31.7
2016-Dec-04 17:16 102 31.7
2016-Dec-04 17:11 102 31.7
2016-Dec-04 17:06 103 31.7
2016-Dec-04 17:01 113 31.7
2016-Dec-04 16:56 113 32.2
2016-Dec-04 16:51 123 32.2
2016-Dec-04 16:46 111 32.2
2016-Dec-04 16:41 110 32.2
2016-Dec-04 16:36 111 32.2
2016-Dec-04 16:31 106 32.2
2016-Dec-04 16:26 113 32.2
2016-Dec-04 16:21 095 32.2
2016-Dec-04 16:16 095 32.2
2016-Dec-04 16:11 099 32.2
2016-Dec-04 16:01 091 32.2
2016-Dec-04 15:56 092 32.2
2016-Dec-04 15:51 094 32.2
2016-Dec-04 15:46 096 32.2
2016-Dec-04 15:41 094 32.8
2016-Dec-04 15:36 094 32.8
2016-Dec-04 15:31 096 32.8
2016-Dec-04 15:26 096 32.8
2016-Dec-04 15:21 098 32.8
2016-Dec-04 15:16 098 32.8
2016-Dec-04 15:11 098 32.8
2016-Dec-04 15:06 098 32.8
2016-Dec-04 15:01 098 32.8
2016-Dec-04 14:56 102 33.3
2016-Dec-04 14:51 103 33.3
2016-Dec-04 14:46 102 33.3
2016-Dec-04 14:41 100 33.3
2016-Dec-04 14:36 100 33.3
2016-Dec-04 14:31 100 33.3
2016-Dec-04 14:26 100 33.3
2016-Dec-04 14:21 100 33.3
2016-Dec-04 14:16 101 33.3
2016-Dec-04 14:11 100 33.3
2016-Dec-04 14:06 106 33.3
2016-Dec-04 14:01 107 33.3
2016-Dec-04 13:51 108 33.3
2016-Dec-04 13:46 107 33.3
2016-Dec-04 13:41 107 33.3
2016-Dec-04 13:36 107 33.3
2016-Dec-04 13:31 107 33.3
2016-Dec-04 13:26 119 33.3
2016-Dec-04 13:21 142 33.3
2016-Dec-04 13:16 145 33.3
2016-Dec-04 13:11 148 33.9
2016-Dec-04 13:06 148 33.9
2016-Dec-04 13:01 148 33.9
2016-Dec-04 12:56 147 33.9
2016-Dec-04 12:51 148 33.9
2016-Dec-04 12:46 148 33.9
2016-Dec-04 12:41 148 33.9
2016-Dec-04 12:36 148 33.9
2016-Dec-04 12:31 148 33.9
2016-Dec-04 12:26 147 33.9
2016-Dec-04 12:21 149 33.9
2016-Dec-04 12:16 148 33.9
2016-Dec-04 12:11 148 33.9
2016-Dec-04 12:01 148 33.9
2016-Dec-04 11:51 148 33.9
2016-Dec-04 11:41 148 33.9
2016-Dec-04 11:36 146 33.9
2016-Dec-04 11:31 142 33.9
2016-Dec-04 11:26 142 33.9
2016-Dec-04 11:21 140 33.9
2016-Dec-04 11:16 140 33.9
2016-Dec-04 11:11 139 33.9
2016-Dec-04 11:06 140 33.3
2016-Dec-04 11:01 138 33.3
2016-Dec-04 10:56 140 33.3
2016-Dec-04 10:51 139 33.3
2016-Dec-04 10:46 138 33.3
2016-Dec-04 10:41 140 33.3
2016-Dec-04 10:36 139 8.3
2016-Dec-04 10:31 139 7.8
2016-Dec-04 10:26 140 7.8
2016-Dec-04 10:21 139 7.8
2016-Dec-04 10:16 139 7.8
2016-Dec-04 10:11 140 7.8
2016-Dec-04 10:06 140 7.8
2016-Dec-04 10:01 140 7.8
2016-Dec-04 09:56 140 7.8
2016-Dec-04 09:51 139 7.8
2016-Dec-04 09:46 140 7.8
2016-Dec-04 09:41 140 7.8
2016-Dec-04 09:36 140 7.8
2016-Dec-04 09:31 160 7.8
2016-Dec-04 09:26 160 7.2
2016-Dec-04 09:21 160 7.2
2016-Dec-04 09:16 160 7.2
2016-Dec-04 09:11 160 7.2
2016-Dec-04 09:06 160 7.2
2016-Dec-04 09:01 160 7.2
2016-Dec-04 08:56 160 7.2
2016-Dec-04 08:51 160 6.7
2016-Dec-04 08:46 160 6.7
2016-Dec-04 08:41 160 6.7
2016-Dec-04 08:36 160 6.7
2016-Dec-04 08:31 160 6.7
2016-Dec-04 08:26 160 6.7
2016-Dec-04 08:21 160 6.1
2016-Dec-04 08:16 160 6.1
2016-Dec-04 08:11 160 6.1
2016-Dec-04 08:06 160 6.1
2016-Dec-04 08:01 160 6.1
2016-Dec-04 07:56 160 5.6
2016-Dec-04 07:51 160 5.6
2016-Dec-04 07:46 160 5.6
2016-Dec-04 07:41 160 5.6
2016-Dec-04 07:36 160 5.6
2016-Dec-04 07:31 160 5.6
2016-Dec-04 07:26 160 5.6
2016-Dec-04 07:21 160 5.6
2016-Dec-04 07:16 160 5.6
2016-Dec-04 07:11 160 5.6
2016-Dec-04 07:06 161 5.6
2016-Dec-04 07:01 160 5.6
2016-Dec-04 06:56 160 5.6
2016-Dec-04 06:51 160 5.6
2016-Dec-04 06:46 160 5.6
2016-Dec-04 06:41 160 5.6
2016-Dec-04 06:36 160 6.1
2016-Dec-04 06:31 160 6.1
2016-Dec-04 06:26 160 6.1
2016-Dec-04 06:21 161 6.1
2016-Dec-04 06:16 160 6.1
2016-Dec-04 06:11 160 6.1
2016-Dec-04 06:06 160 6.1
2016-Dec-04 06:01 160 6.1
2016-Dec-04 05:51 162 6.1
2016-Dec-04 05:46 160 6.1
2016-Dec-04 05:41 160 6.1
2016-Dec-04 05:36 160 6.1
2016-Dec-04 05:31 160 6.1
2016-Dec-04 05:26 160 6.1
2016-Dec-04 05:21 160 6.1
2016-Dec-04 05:16 160 6.1
2016-Dec-04 05:11 160 6.1
2016-Dec-04 05:06 160 6.1
2016-Dec-04 05:01 160 6.1
2016-Dec-04 04:56 161 6.1
2016-Dec-04 04:51 161 6.1
2016-Dec-04 04:46 160 6.1
2016-Dec-04 04:41 160 6.1
2016-Dec-04 04:36 160 6.1
2016-Dec-04 04:31 161 6.1
2016-Dec-04 04:26 160 6.1
2016-Dec-04 04:21 160 6.1
2016-Dec-04 04:16 160 6.1
2016-Dec-04 04:11 160 6.1
2016-Dec-04 04:06 160 5.6
2016-Dec-04 04:01 160 5.6
2016-Dec-04 03:56 160 5.6
2016-Dec-04 03:51 160 5.6
2016-Dec-04 03:46 160 5.6
2016-Dec-04 03:41 160 6.1
2016-Dec-04 03:36 160 6.1
2016-Dec-04 03:31 160 6.1
2016-Dec-04 03:26 160 6.1
2016-Dec-04 03:21 160 6.1
2016-Dec-04 03:16 160 6.1
2016-Dec-04 03:11 160 6.1
2016-Dec-04 03:06 160 6.1
2016-Dec-04 03:01 160 6.1
2016-Dec-04 02:56 160 6.1
2016-Dec-04 02:51 160 6.1
2016-Dec-04 02:46 160 6.1
2016-Dec-04 02:41 160 6.1
2016-Dec-04 02:36 160 6.1
2016-Dec-04 02:31 160 6.1
2016-Dec-04 02:26 160 6.1
2016-Dec-04 02:21 160 6.1
2016-Dec-04 02:16 160 6.1
2016-Dec-04 02:11 160 6.1
2016-Dec-04 02:06 159 6.1
2016-Dec-04 02:01 160 6.1
2016-Dec-04 01:56 160 6.1
2016-Dec-04 01:51 160 6.1
2016-Dec-04 01:46 159 5.6
2016-Dec-04 01:41 160 5.6
2016-Dec-04 01:36 160 5.6
2016-Dec-04 01:31 160 5.0
2016-Dec-04 01:26 160 5.0
2016-Dec-04 01:21 160 5.0
2016-Dec-04 01:16 160 5.0
2016-Dec-04 01:11 160 4.4
2016-Dec-04 01:06 160 4.4
2016-Dec-04 01:01 160 4.4
2016-Dec-04 00:56 160 4.4
2016-Dec-04 00:51 160 4.4
2016-Dec-04 00:46 160 4.4
2016-Dec-04 00:41 160 4.4
2016-Dec-04 00:36 160 4.4
2016-Dec-04 00:31 160 4.4
2016-Dec-04 00:26 160 4.4
2016-Dec-04 00:21 160 4.4
2016-Dec-04 00:16 160 4.4
2016-Dec-04 00:11 160 4.4
2016-Dec-04 00:06 160 4.4
2016-Dec-03 23:56 160 5.0
2016-Dec-03 23:51 160 5.0
2016-Dec-03 23:46 160 5.0
2016-Dec-03 23:41 160 5.6
2016-Dec-03 23:36 160 5.6
2016-Dec-03 23:31 160 5.6
2016-Dec-03 23:26 161 5.6
2016-Dec-03 23:21 160 5.6
2016-Dec-03 23:16 161 5.0
2016-Dec-03 23:11 160 5.0
2016-Dec-03 23:06 160 5.0
2016-Dec-03 23:01 160 5.0
2016-Dec-03 22:56 160 5.0
2016-Dec-03 22:51 160 5.0
2016-Dec-03 22:46 161 4.4
2016-Dec-03 22:41 160 4.4
2016-Dec-03 22:36 160 3.9
2016-Dec-03 22:31 160 3.9
2016-Dec-03 22:26 160 3.9
2016-Dec-03 22:21 160 3.9
2016-Dec-03 22:16 160 3.9
2016-Dec-03 22:11 160 3.3
2016-Dec-03 22:06 235 2.8
2016-Dec-03 22:01 242 2.2
2016-Dec-03 21:56 242 1.7
2016-Dec-03 21:51 243 1.1
2016-Dec-03 21:46 243 0.6
2016-Dec-03 21:41 243 -0.0
2016-Dec-03 21:36 243 -0.0
2016-Dec-03 21:31 243 -0.0
2016-Dec-03 21:26 242 -0.0
2016-Dec-03 21:21 243 -0.0
2016-Dec-03 21:16 243 -0.6
2016-Dec-03 21:11 242 -0.6
2016-Dec-03 21:06 242 -0.6
2016-Dec-03 21:01 242 -0.6
2016-Dec-03 20:56 243 -0.6
2016-Dec-03 20:51 243 -0.6
2016-Dec-03 20:46 243 -0.0
2016-Dec-03 20:41 243 -0.6
2016-Dec-03 20:36 243 -0.0
2016-Dec-03 20:31 243 -0.0
2016-Dec-03 20:26 243 -0.0
2016-Dec-03 20:21 242 -0.0
2016-Dec-03 20:16 242 -0.0
2016-Dec-03 20:11 243 0.6
2016-Dec-03 20:06 243 0.6
2016-Dec-03 20:01 242 -0.0